GFSNE_con_lsi_276.txt.gz
Lid_Strength_Index
3 3 3 3 3 3 3 4 5 7 10 12 13 13 13 13 13 13 12 11 10 9 8 7 6 4 4 3 3 2 2 2 1 1 1 1 0 0
3 3 3 3 4 4 3 4 4 5 11 10 13 13 13 13 13 13 12 12 10 9 8 6 5 5 4 4 3 3 3 3 2 2 2 1 1 0
4 4 5 5 6 6 5 5 5 6 11 13 12 13 14 13 14 14 13 14 13 9 7 6 6 5 5 5 4 4 4 4 3 3 2 2 2 1
7 7 7 7 7 7 7 7 7 6 8 12 13 13 13 13 13 14 13 13 13 8 7 7 6 6 6 5 5 5 6 5 5 5 4 3 3 2
8 8 8 7 7 8 8 8 8 8 9 11 13 13 13 13 14 15 14 14 11 9 8 8 8 7 6 6 6 6 6 6 6 6 6 5 5 4
10 10 10 9 9 9 9 9 9 10 11 12 13 14 15 15 15 15 15 13 13 11 10 9 9 9 8 6 7 7 7 7 7 7 7 7 6 6
12 12 12 12 11 10 10 10 10 11 12 13 14 15 16 17 15 15 15 16 16 15 13 11 11 11 11 8 8 7 7 7 7 8 8 8 7 7
11 11 11 12 11 10 10 10 10 12 13 14 15 15 15 15 15 16 16 16 16 16 13 12 12 12 12 9 7 6 7 7 7 8 8 8 8 8
12 13 13 12 13 13 11 11 12 10 10 12 14 15 15 14 14 17 16 16 17 16 14 13 12 12 12 10 7 7 7 7 8 8 8 9 9 8
12 12 13 13 13 13 13 14 14 13 13 13 14 14 13 12 13 13 14 17 18 17 16 13 13 13 12 12 8 8 7 7 7 8 8 8 9 9
13 13 13 14 11 11 14 14 15 14 12 11 12 11 10 11 12 14 19 20 21 20 19 14 14 14 13 12 12 9 8 8 8 8 8 8 9 9
14 13 13 13 11 12 14 16 18 16 16 17 15 13 13 13 13 14 15 15 22 21 19 18 17 17 13 13 12 12 12 10 9 9 9 8 9 10
14 14 14 12 11 11 12 15 16 15 15 17 18 17 17 17 18 17 16 17 20 20 18 19 19 20 16 15 14 13 13 13 12 11 10 9 9 10
14 14 14 11 11 11 13 11 12 14 17 19 21 21 21 22 22 21 20 19 19 19 19 19 20 19 19 15 14 13 14 13 13 12 12 10 10 10
14 13 11 11 12 12 11 11 17 18 20 22 22 21 22 23 23 23 22 22 23 23 22 21 20 21 18 14 17 14 14 15 14 13 12 12 12 12
12 13 12 13 12 14 15 14 17 17 19 21 21 23 24 24 23 23 18 15 23 20 22 15 15 14 13 12 18 16 15 17 17 14 13 12 12 12
18 19 19 15 14 14 14 14 14 14 15 17 22 23 24 24 23 23 23 23 22 23 22 16 15 15 15 14 14 15 15 15 18 16 13 14 13 13
20 19 17 15 15 14 14 14 14 15 15 18 18 20 20 19 21 23 23 23 23 24 24 23 16 23 19 18 13 15 15 15 15 19 18 16 15 14
23 20 20 17 16 15 15 14 15 15 15 15 14 17 18 20 20 24 23 23 23 24 24 25 23 24 24 22 22 14 15 15 15 16 15 14 15 15
15 18 16 19 20 19 17 16 16 18 15 14 14 17 17 18 21 19 19 22 21 23 22 24 23 21 20 18 22 23 15 15 15 15 17 15 15 13
14 15 15 16 17 17 17 17 17 17 16 16 15 16 17 17 17 17 17 18 20 21 17 16 17 20 23 23 23 19 23 15 17 16 18 16 16 15
16 16 16 16 16 16 17 17 18 17 16 17 17 16 17 17 17 17 17 18 18 17 16 21 23 22 23 18 21 24 20 22 19 15 15 17 20 23
15 15 15 15 15 15 16 16 16 17 16 16 16 16 17 18 17 18 18 18 18 18 22 22 23 24 24 19 20 21 23 25 23 22 23 15 14 13

GFSNE_con_lsi_279.txt.gz
Lid_Strength_Index
3 3 3 3 3 3 4 4 5 8 10 12 13 12 13 12 12 12 12 10 9 9 8 7 6 4 3 2 2 2 2 2 1 1 1 1 1 0
3 3 3 3 3 4 3 4 3 5 11 11 13 13 12 13 12 12 12 12 10 9 8 6 5 4 4 4 3 4 3 3 2 2 2 2 1 1
4 4 5 5 6 6 5 4 4 7 11 13 13 13 13 13 13 13 13 14 13 9 7 6 5 5 5 4 4 4 4 4 4 4 3 3 3 2
6 6 7 7 7 6 6 6 6 8 10 14 13 13 13 13 14 14 14 13 13 8 7 6 5 5 5 5 5 5 6 6 6 5 5 5 4 4
8 7 7 7 8 8 8 8 7 8 9 12 13 12 13 14 15 15 15 14 12 9 8 8 7 6 6 6 6 6 7 7 7 7 7 6 6 5
11 11 10 9 8 8 8 8 9 10 11 12 13 14 14 15 15 16 16 15 13 11 10 9 9 8 7 6 7 7 7 7 8 8 8 8 7 7
12 12 12 12 11 10 9 9 9 11 12 12 14 15 16 16 16 15 15 17 16 13 12 12 11 11 10 8 7 7 7 7 8 8 9 9 8 8
12 12 12 12 11 10 10 9 9 11 13 13 14 15 15 16 16 15 17 13 14 12 12 12 12 12 11 9 6 6 7 8 8 9 9 9 9 9
13 13 13 13 13 13 11 11 12 10 10 13 13 14 15 15 15 18 17 15 17 14 13 13 12 13 12 10 6 6 7 8 8 8 9 9 9 9
13 13 13 13 13 13 14 14 14 13 13 13 14 14 14 14 13 13 14 18 19 18 14 13 13 13 12 13 8 7 7 8 8 8 9 9 9 9
13 13 14 13 11 12 14 14 15 14 11 11 11 11 11 11 12 14 20 17 21 19 19 15 14 14 13 13 12 9 8 8 9 9 9 9 9 10
14 14 13 13 11 12 15 16 18 17 17 17 16 14 13 12 12 14 15 19 23 21 18 17 18 18 17 14 13 12 12 10 9 9 9 8 9 11
14 15 14 11 11 12 13 15 16 16 15 18 18 18 18 18 18 17 16 16 17 21 17 18 19 20 18 17 14 13 12 12 12 11 10 9 9 10
15 15 14 11 11 11 13 12 12 15 18 20 21 22 23 23 23 22 21 20 20 19 19 19 19 18 21 19 16 14 13 13 12 12 12 11 10 10
15 14 12 11 11 12 11 11 16 18 19 23 22 21 22 22 25 24 24 24 24 24 22 21 20 22 20 20 20 15 17 17 13 13 13 13 13 12
13 15 13 14 13 14 14 14 19 20 21 21 22 23 23 25 24 24 20 21 19 19 16 15 22 21 18 16 20 20 19 16 16 14 14 14 13 13
21 22 21 21 18 20 17 17 20 20 20 21 23 23 24 24 24 25 23 17 23 19 18 15 15 14 14 13 13 18 19 16 16 15 16 17 15 14
23 25 24 24 17 16 16 15 15 15 15 15 16 22 24 22 23 25 24 23 18 20 19 16 16 16 15 15 13 13 15 16 15 20 16 16 15 15
19 25 23 20 16 16 16 15 15 15 15 15 16 16 20 24 22 22 23 23 23 24 24 20 16 22 18 20 21 13 14 16 15 15 14 14 15 15
14 16 18 18 21 18 17 17 16 17 15 16 16 15 17 20 23 22 20 20 21 24 23 24 19 18 19 18 19 20 13 14 15 16 15 15 15 13
14 14 15 18 19 19 20 21 21 19 16 15 15 15 16 18 18 18 19 20 22 22 18 17 17 19 24 23 21 19 21 14 13 14 15 15 16 16
16 15 15 15 17 18 19 19 20 20 19 18 17 17 17 18 18 18 18 18 19 18 18 21 22 20 21 18 18 23 22 20 17 14 13 13 16 20
15 16 15 16 16 17 18 19 18 18 18 17 17 17 17 18 17 17 17 17 17 18 17 22 22 22 19 18 18 23 23 20 21 19 19 13 12 13

GFSNE_con_lsi_285.txt.gz
Lid_Strength_Index
3 3 3 4 4 4 4 4 6 9 12 13 14 13 13 12 12 12 11 9 7 6 6 6 5 4 3 3 3 2 2 2 2 3 3 3 3 3
3 3 3 4 4 4 4 3 4 6 12 12 13 13 12 12 12 12 11 10 8 7 6 6 5 4 4 4 4 4 3 3 4 4 4 4 4 4
3 4 4 4 4 4 4 4 4 7 12 14 13 13 13 12 13 12 12 12 10 8 7 5 5 5 5 5 6 6 5 5 5 5 5 5 4 4
5 5 6 6 6 6 5 6 7 8 10 14 13 13 12 12 12 13 13 12 12 9 8 6 5 5 6 7 7 7 7 7 7 7 6 6 6 5
6 6 7 6 7 7 7 7 8 9 10 13 14 12 13 13 14 14 14 14 12 10 7 7 6 6 6 7 7 7 8 8 8 8 8 8 7 7
10 9 8 7 6 7 7 7 9 10 11 12 12 13 13 13 14 16 16 16 13 10 9 9 8 7 7 7 8 8 8 8 8 9 9 9 8 8
11 11 11 12 11 9 8 8 9 10 11 12 13 14 14 16 15 16 17 14 12 11 11 11 11 10 9 8 8 8 8 8 8 9 9 9 9 9
12 12 12 12 11 10 9 8 8 10 11 11 13 13 15 15 16 16 13 12 13 12 12 12 12 12 11 10 7 7 8 8 8 9 9 9 9 10
13 13 13 13 13 12 11 10 11 9 10 11 13 14 14 14 14 15 14 13 12 16 12 12 12 12 12 10 7 7 8 8 8 9 9 9 9 10
14 14 14 14 13 13 14 14 14 13 13 13 12 13 13 13 13 13 11 17 20 18 15 14 13 13 12 11 8 7 8 8 8 8 9 9 10 10
14 14 14 14 12 12 14 14 15 15 12 11 12 11 11 11 12 13 18 18 18 17 19 17 17 15 14 12 11 9 7 8 8 8 9 9 10 10
14 14 13 14 12 12 15 16 19 17 18 17 16 13 12 11 11 12 13 14 22 15 17 17 18 16 14 12 12 11 12 9 8 8 9 9 10 11
16 16 15 12 12 12 13 16 16 17 16 20 20 19 19 18 18 17 15 16 23 21 17 17 19 18 18 15 13 12 13 13 11 10 9 9 9 11
16 17 16 12 12 12 15 14 13 18 21 23 24 24 23 23 24 23 22 21 21 19 20 20 19 18 16 14 13 12 13 13 12 11 11 10 11 11
16 15 13 12 12 14 13 13 19 22 24 26 26 25 25 26 25 23 25 26 21 20 23 23 20 22 19 14 14 13 14 14 13 13 13 13 13 12
14 15 14 14 15 16 16 16 21 23 24 25 26 26 22 23 24 20 20 19 20 19 17 23 23 20 17 19 19 15 15 15 14 14 14 14 14 13
19 18 19 18 17 19 16 18 17 20 20 19 21 20 21 24 27 21 24 20 21 20 19 17 18 23 22 20 20 16 15 15 15 13 14 14 14 14
17 16 17 17 17 18 16 16 17 17 17 18 18 19 20 25 23 22 20 18 19 20 20 18 17 17 17 19 14 16 19 15 16 14 14 14 15 14
17 16 17 16 17 17 20 20 18 18 18 18 16 16 17 21 24 22 20 20 19 18 19 19 17 16 18 20 19 12 13 19 16 16 14 14 18 15
15 16 18 18 20 20 20 19 21 20 16 16 16 16 17 17 20 20 20 20 20 24 20 25 18 17 18 20 20 20 12 14 14 14 14 14 14 12
15 15 15 18 20 20 19 19 19 18 17 16 16 16 16 17 17 19 20 20 20 22 21 19 18 18 22 24 20 20 20 13 15 19 21 16 15 16
16 17 17 18 18 20 20 19 20 19 19 18 16 16 16 16 17 17 19 20 20 19 20 19 22 20 22 19 18 19 23 21 15 12 12 13 17 19
16 16 16 16 16 18 20 22 21 20 19 19 18 17 16 17 16 17 19 19 19 20 20 21 23 23 20 20 19 18 24 23 22 17 16 12 11 12

GFSNE_con_lsi_291.txt.gz
Lid_Strength_Index
3 3 3 4 3 4 4 4 5 9 11 13 14 12 12 11 10 9 8 7 5 5 5 5 4 5 4 4 4 4 3 3 3 4 3 3 3 3
3 3 3 3 3 3 4 3 4 6 12 12 12 12 11 11 10 10 9 8 7 6 5 5 5 5 5 5 5 5 4 4 4 4 4 4 4 4
3 3 3 3 3 4 4 3 4 7 12 13 12 11 12 12 11 10 8 8 7 6 5 6 6 6 6 6 6 6 6 6 5 5 5 5 4 4
3 4 4 5 5 4 4 5 6 8 9 13 13 13 12 11 11 10 10 9 8 7 5 5 6 7 7 7 7 7 7 7 7 7 6 6 5 6
5 5 5 5 6 6 6 7 7 8 10 12 13 12 12 12 12 12 11 10 10 8 7 5 6 7 7 8 8 8 8 8 8 8 7 7 7 7
8 8 7 6 7 6 6 7 8 9 10 12 12 12 12 12 11 12 12 11 10 9 9 7 7 7 8 8 8 8 8 8 8 8 8 8 8 8
11 12 12 13 12 8 7 8 8 10 10 11 12 13 13 13 13 12 12 11 11 10 10 9 8 8 8 8 8 8 8 8 8 9 9 9 9 9
12 12 11 12 10 10 9 8 8 9 10 11 12 12 13 13 13 13 13 12 12 10 10 10 9 9 9 8 7 7 8 9 9 9 9 9 9 9
12 12 13 13 12 11 10 10 11 9 9 9 11 11 13 12 13 13 13 12 12 12 11 10 10 9 9 9 8 7 8 9 9 9 9 10 10 10
13 13 13 13 12 11 11 12 12 12 12 11 10 10 10 11 11 11 12 13 13 13 13 11 10 10 9 9 9 7 8 8 9 9 10 10 10 10
13 13 13 12 12 12 12 13 14 14 12 11 11 11 10 11 11 12 13 12 13 13 14 12 12 11 10 9 9 8 8 8 8 9 10 10 10 10
14 13 14 12 12 12 13 14 15 15 15 15 14 12 11 11 11 10 12 12 12 12 12 11 14 12 12 11 10 10 9 9 8 9 9 10 10 10
14 15 14 12 12 12 13 14 15 15 15 16 16 15 15 14 14 13 12 12 13 12 13 11 13 13 13 12 11 10 10 11 10 10 9 9 10 10
15 15 15 11 11 12 14 13 13 16 17 17 16 16 16 15 17 17 17 15 16 14 15 13 12 13 13 13 13 11 11 11 11 12 11 10 10 10
15 14 13 12 12 13 13 13 18 17 18 17 18 18 20 21 21 19 20 20 18 17 17 17 14 15 13 13 12 12 12 12 11 12 12 12 12 12
14 15 14 15 14 16 16 16 18 18 18 18 19 20 21 20 19 19 18 17 17 16 18 17 18 16 15 15 14 13 12 13 13 12 12 12 12 12
16 16 15 15 16 16 16 17 18 19 19 19 20 19 20 20 21 20 20 19 18 18 17 18 17 18 17 16 16 14 14 13 12 13 14 13 12 12
17 18 17 16 16 17 17 16 16 17 18 18 18 19 19 20 21 21 20 20 19 19 19 18 17 18 17 16 15 15 14 14 12 13 13 14 13 12
17 17 17 17 17 17 17 18 18 18 18 18 18 19 19 19 21 21 20 20 20 19 18 18 18 18 19 18 14 14 15 14 15 15 14 14 14 12
15 16 17 17 17 17 18 19 20 19 19 18 18 18 18 17 19 20 21 21 20 19 19 19 18 18 18 17 16 15 14 14 16 15 15 14 13 12
16 15 15 16 16 17 18 19 19 19 18 18 18 17 17 17 18 18 19 20 20 19 19 19 18 17 16 19 19 17 15 14 13 14 14 14 15 15
15 15 15 15 15 16 17 18 19 19 19 18 18 17 17 17 17 17 17 18 19 19 18 17 16 17 19 19 19 17 16 16 16 13 13 13 15 16
15 15 15 15 15 15 16 17 18 18 18 18 18 17 17 17 16 16 16 17 17 18 19 18 18 19 19 19 19 18 17 17 17 16 16 12 13 13